Location: Kailua
(21.4020°N, 157.7390°W)
Time: 23:32:23
(UTC-10:00)

Daily predictions for brighter satellites

Satellite Brightness Start Highest point End
(mag) Time Altitude Azimuth Time Altitude Azimuth Time Altitude Azimuth
Stardust Del rocket 2.4 19:11:46 10° W 19:14:08 87° S 19:17:40 10° E
Meteor 2-2 Rocket 4.3 19:08:40 10° S 19:14:25 69° E 19:20:18 10° NNE
SPOT 3 Rocket 3.6 19:12:53 10° SSE 19:17:58 59° ENE 19:23:02 10° N
Cosmos 1805 Rocket 3.6 19:14:13 10° N 19:18:28 55° E 19:22:41 10° SSE
Cosmos 1455 2.6 19:14:56 10° SSE 19:18:33 42° E 19:22:11 10° NNE
IUS-9 SRM-1 3.3 19:18:01 10° S 19:19:45 19° SE 19:23:03 10° E
FREGAT/IRIS 3.5 19:18:27 10° SE 19:21:03 28° ENE 19:23:38 10° NNE
Cosmos 2228 Rocket 4.1 19:17:28 10° SSE 19:21:05 26° E 19:24:42 10° NE
Thor Agena Rocket 4.2 19:18:47 10° NE 19:23:36 35° E 19:28:23 10° SSE
OAO 3 Rocket 3.1 19:19:00 10° SW 19:23:48 75° SSE 19:28:32 10° ENE
XTE 1.9 19:22:24 10° W 19:24:21 67° SSW 19:26:01 13° ESE
OAO 2 Rocket 4.3 19:21:36 10° NW 19:26:31 39° NNE 19:31:19 10° E
SWIFT 3.8 19:24:00 10° SSW 19:27:21 22° SSE 19:30:23 11° ESE
Haruka 4.3 19:17:34 10° WNW 19:28:34 46° N 19:32:24 10° E
GPS 2-15 Rocket1 3.8 19:24:33 10° SW 19:29:11 40° SSE 19:33:26 12° E
Cosmos 1980 4.1 19:25:48 10° SSW 19:31:27 70° WNW 19:37:07 10° NNE
SJ-6B 3.9 19:29:03 10° SE 19:32:27 27° ENE 19:35:49 10° NNE
CZ-4 R/B 4.5 19:32:08 10° SW 19:34:20 14° W 19:36:32 10° WNW
SL-24 R/B - RUBIN 2 3.5 19:34:20 10° NNW 19:38:41 78° ENE 19:43:17 10° SSE
Cosmos 1151 Rocket 3.3 19:36:14 10° SSE 19:40:15 44° E 19:44:18 10° NNE
Meteor 2-15 4.4 19:34:38 10° N 19:40:43 73° E 19:46:46 10° S
Nadezhda 3 Rocket 4.1 19:34:46 10° N 19:41:01 59° E 19:47:15 10° SSE
Cosmos 1892 2.8 19:37:23 10° N 19:41:09 52° E 19:44:52 10° SSE
CZ-2D R/B 3.9 19:39:17 11° SE 19:42:34 35° ENE 19:46:02 10° N
Palapa 6 Rocket 4.4 19:37:17 10° SW 19:42:35 32° SSE 19:45:42 17° ESE
CZ-4C R/B 2.9 19:39:23 10° SSE 19:43:10 23° ESE 19:47:08 10° ENE
Cosmos 1844 Rocket 2.7 19:39:56 10° NNW 19:45:36 88° WSW 19:51:13 10° SSE
Genesis I 4.2 19:43:41 10° N 19:47:16 30° ENE 19:49:05 21° ESE
Resurs 01 Rocket 3.1 19:51:15 18° E 19:52:02 19° ENE 19:55:07 10° NNE
Meteor 2-3 Rocket 3.9 19:48:10 10° N 19:53:39 52° E 19:59:11 10° SSE
Cosmos 1939 Rocket 4.1 19:54:48 21° E 19:55:14 22° ENE 19:58:15 10° NNE
Cosmos 1371 Rocket 4.1 19:50:32 10° SSW 19:55:48 86° WNW 20:01:10 10° NNE
Cosmos 2237 Rocket 3.6 19:52:26 10° SW 19:57:40 41° WNW 20:02:56 10° N
Envisat 3.0 19:53:10 10° SSE 19:58:09 62° ENE 20:03:09 10° N
EPKM 4.1 19:46:02 10° SW 19:58:56 34° S 20:01:12 23° SE
Sich 1 3.4 19:55:04 10° NNW 19:59:17 64° W 20:03:31 10° S
Cosmos 1666 Rocket 3.8 19:55:29 10° N 19:59:54 73° W 20:04:17 10° S
HJ-1C 3.6 20:00:19 10° S 20:03:38 67° W 20:06:57 10° NNW
Cosmos 1933 Rocket 4.2 20:01:56 10° NNE 20:05:54 34° E 20:06:36 32° ESE
Cosmos 1844 3.9 20:00:28 10° NNW 20:06:12 76° WSW 20:11:57 10° S
Aurora 2 Rocket 4.1 19:58:02 10° WSW 20:08:02 84° SSE 20:13:27 21° ENE
Cosmos 1825 3.4 20:05:25 10° NNE 20:07:55 25° ENE 20:07:55 25° ENE
Cosmos 1959 Rocket 4.4 20:03:24 10° S 20:09:29 63° E 20:15:30 10° NNE
Delta 128 4.3 20:04:42 10° W 20:09:33 54° SSW 20:12:17 28° SE
USA 186 3.9 20:12:48 10° NNE 20:12:48 10° NNE 20:12:52 10° N
Hubble Space Telescope 0.9 20:10:02 10° WSW 20:14:09 69° NNW 20:16:02 31° ENE
GPS 2-17 Rocket1 3.2 20:09:49 10° WSW 20:14:31 63° S 20:16:03 40° ESE
Resurs 1-3 4.1 20:14:22 36° E 20:14:46 37° ENE 20:18:49 10° N
Cosmos 2056 Rocket 3.9 20:11:22 10° SSW 20:16:44 68° WNW 20:22:07 10° N
Cosmos 1452 Rocket 3.9 20:17:03 36° ESE 20:17:23 37° E 20:22:10 10° NE
deb Centaur AC-2 4.3 20:14:37 10° WNW 20:18:50 55° NNE 20:20:06 39° ENE
Cosmos 2278 Rocket 2.4 20:13:53 10° N 20:19:23 52° ENE 20:21:12 37° ESE
Fermi 3.8 20:16:04 10° WNW 20:20:13 72° NNE 20:21:06 52° ENE
Cosmos 1408 2.9 20:19:09 10° N 20:22:18 49° NE 20:22:18 49° NE
Cosmos 2344 3.5 20:14:56 10° SSW 20:23:02 73° ESE 20:30:38 10° NNE
Meteor 2-10 Rocket 3.6 20:21:39 10° S 20:27:17 78° E 20:33:05 10° N
Cosmos 1633 Rocket 4.5 20:23:57 10° NNW 20:27:58 37° W 20:31:59 10° SSW
BREEZE-M DEB (TANK) 3.6 20:26:41 10° NNW 20:30:09 41° NE 20:30:20 41° NE
YAOGAN 6 2.5 20:30:52 79° N 20:30:52 79° N 20:34:18 10° N
ERS-2 2.6 20:34:53 52° SW 20:35:23 58° WSW 20:39:00 10° NNW
Sakura Rocket 3.9 20:32:05 10° WNW 20:37:05 41° N 20:37:51 37° NNE
Cosmos 2218 Rocket 4.3 20:31:13 10° SSW 20:37:31 70° W 20:43:52 10° N
Spot 2 Rocket 3.6 20:40:39 56° ENE 20:40:39 56° ENE 20:45:29 10° N
Cosmos 2098 Rocket 3.5 20:36:52 10° SSW 20:41:59 63° W 20:46:00 10° N
Cosmos 2366 rocket 4.2 20:36:49 10° SSW 20:42:58 70° W 20:49:13 10° N
BREEZE-M DEB (TANK) 3.5 20:42:24 10° SW 20:45:44 82° NW 20:55:37 10° NE
BREEZE-M DEB (TANK) 3.3 20:33:32 10° NW 20:50:20 79° SW 20:51:15 61° SSE
SL-16 R/B 3.7 20:45:58 10° SW 20:51:07 36° WNW 20:56:17 10° N
ATLAS 2AS CENTAUR R/B 3.1 20:48:17 10° NNW 20:55:40 63° WSW 20:58:16 39° S
Cosmos 1339 Rocket 4.3 21:02:04 10° N 21:08:14 88° W 21:08:21 86° SSW
OAO 2 Rocket 4.2 21:06:21 10° WNW 21:10:17 44° WSW 21:10:17 44° WSW
Centaur D-1A AC-31 2.2 20:58:57 10° W 21:13:40 63° NNW 21:14:17 59° NNE
NOSS 3-4 (A) 4.1 21:19:20 10° NNW 21:25:44 59° NNE 21:25:44 59° NNE
NOSS 3-4 (C) 4.1 21:19:26 10° NNW 21:25:50 58° NNE 21:25:50 58° NNE
Resurs 01 Rocket 3.8 21:28:49 23° W 21:28:49 23° W 21:31:48 10° NW
CZ-4C R/B 4.0 21:27:22 10° WSW 21:31:21 24° WNW 21:35:39 10° N
H-2A R/B 4.4 21:54:31 16° NNW 21:54:31 16° NNW 21:55:26 10° NNW
ATLAS 2A CENTAUR R/B 4.3 22:41:30 10° W 22:54:13 49° NW 22:54:13 49° NW
